Tracking 19212 objects as of 17-Jul-2018
HD Live streaming from Space Station
objects crossing your sky now

COSMOS 637

Track COSMOS 637 now!
COSMOS 637 is classified as:


NORAD ID: 7229
Int'l Code: 1974-017A
Perigee: 35,470.1 km
Apogee: 35,835.0 km
Inclination: 7.8 °
Period: 1,428.9 minutes
Semi major axis: 42023 km
RCS: 2.5118 m2 (large)
Launch date: March 26, 1974
Source: Commonwealth of Independent States (former USSR) (CIS)
Launch site: TYURATAM MISSILE AND SPACE COMPLEX (TTMTR)
aabbcc
Your satellite tracking list
Your tracking list is empty




NASA's NSSDC Master Catalog

Two Line Element Set (TLE):
1  7229U 74017A   18196.69354809 -.00000313 +00000-0 +00000-0 0  9996
2  7229 007.8329 303.0205 0043418 340.5498 023.9226 01.00777629093046
Source of the keplerian elements: AFSPC